Location: Badlands Tank
(34.7185°N, 107.0376°W)
Time: 15:07:04
(UTC+00:00)

Meteor 2-5 Rocket - Visible Passes

Search period start: 14 November 2025 00:00
Search period end: 24 November 2025 00:00
Orbit: 832 x 911 km, 81.2° (Epoch: 13 November)

Date Brightness Start Highest point End Pass type
(mag) Time Alt. Az. Time Alt. Az. Time Alt. Az.
14 Nov 6.1 10:13:55 17° NE 10:13:55 17° NE 10:15:42 10° NE visible
14 Nov 4.8 11:56:30 28° NNW 11:56:30 28° NNW 11:59:37 10° N visible
15 Nov 6.5 10:09:45 11° NE 10:09:45 11° NE 10:09:53 10° NE visible
15 Nov 5.5 11:52:18 17° NNW 11:52:18 17° NNW 11:53:42 10° N visible
16 Nov 6.0 11:47:39 11° N 11:47:39 11° N 11:47:47 10° N visible
